Home   Weather   Palmdale   Past weeks
Flag for USA

Past Weather in Palmdale, California, USA — Yesterday and Last 2 Weeks

Now
75 °F

Clear.


Feels Like: 77 °F
Forecast: 92 / 69 °F
Wind: 6 mph from Southeast

Location: Palmdale - Palmdale Production Flight Plant

Current Time: Sep 15, 2019 at 12:57:52 am

Latest Report: Sep 14, 2019 at 11:53 pm


Visibility: 10 mi

Pressure: 29.90 "Hg (27.24 "Hg at 810m altitude)

Humidity: 26%

Dew Point: 38 °F

Location of PalmdaleLocation

Past Weather in Palmdale — Graph

°F

Palmdale Temperature Yesterday

Maximum temperature yesterday: 97 °F (at 12:53 pm)
Minimum temperature yesterday: 60 °F (at 6:53 am)
Average temperature yesterday: 81 °F

High & Low Weather Summary for the Past Weeks

 TemperatureHumidityPressure
High103 °F (Sep 1, 12:53 pm)73% (Sep 10, 8:53 pm)30.09 "Hg (Sep 10, 8:53 pm)
Low53 °F (Sep 11, 5:53 am)5% (Aug 31, 12:53 pm)29.76 "Hg (Sep 9, 4:53 pm)
Average80 °F29%29.90 "Hg
* Reported Aug 30 10:53 pm — Sep 14 10:53 pm, Palmdale. Weather by CustomWeather, © 2019

Note: Actual official high and low records may vary slightly from our data, if they occured in-between our weather recording intervals... More about our weather records

Advertising

Palmdale Weather History for the Previous 24 Hours

Scroll right to see more
 ConditionsComfort  
Time TempWeatherWind HumidityBarometerVisibility
10:53 pm
Sat, Sep 14
75 °FClear.3 mph25%29.90 "Hg10 mi
9:53 pm83 °FClear.No wind19%29.89 "Hg10 mi
8:53 pm84 °FClear.8 mph20%29.88 "Hg10 mi
7:53 pm87 °FClear.14 mph19%29.88 "Hg10 mi
6:53 pm90 °FSunny.14 mph16%29.87 "Hg10 mi
5:53 pm95 °FSunny.15 mph12%29.86 "Hg10 mi
4:53 pm97 °FSunny.13 mph11%29.86 "Hg10 mi
3:53 pm97 °FSunny.7 mph10%29.87 "Hg10 mi
2:53 pm97 °FSunny.6 mph10%29.88 "Hg10 mi
1:53 pm95 °FSunny.No wind10%29.91 "Hg10 mi
12:53 pm97 °FSunny.N/A10%29.93 "Hg10 mi
11:53 am91 °FSunny.5 mph13%29.96 "Hg10 mi
10:53 am89 °FSunny.3 mph13%29.98 "Hg10 mi
9:53 am85 °FSunny.3 mph14%29.99 "Hg10 mi
8:53 am77 °FSunny.No wind18%29.99 "Hg10 mi
7:53 am70 °FSunny.No wind26%29.99 "Hg10 mi
6:53 am60 °FSunny.3 mph35%29.98 "Hg10 mi
5:53 am62 °FClear.3 mph31%29.95 "Hg10 mi
4:53 am62 °FClear.8 mph32%29.95 "Hg10 mi
3:53 am63 °FClear.8 mph34%29.95 "Hg10 mi
2:53 am66 °FClear.8 mph31%29.95 "Hg10 mi
1:53 am65 °FClear.9 mph32%29.96 "Hg10 mi
12:53 am67 °FClear.10 mph30%29.96 "Hg10 mi
Weather by CustomWeather, © 2019

See weather overview